Regional Weather Roundup
Issued by NWS

Home | Current Version | Previous Version | Graphics & Text | Print | Product List | Glossary On
Versions: 1 2 3 4 5 6 7 8 9 10 11 12 13 14 15 16 17 18 19 20 21 22 23 24 25 26 27 28 29 30 31 32 33 34 35 36 37 38 39 40 41 42 43 44 45 46 47 48 49 50
000
ASUS43 KIND 050209
RWRIN

WEATHER ROUNDUP FOR INDIANA
NATIONAL WEATHER SERVICE INDIANAPOLIS IN
1000 PM EDT SAT JUL 04 2015

NOTE: "FAIR" INDICATES FEW OR NO CLOUDS BELOW 12,000 FEET WITH NO
SIGNIFICANT WEATHER AND/OR OBSTRUCTIONS TO VISIBILITY.

* - STATION DOES NOT REPORT WEATHER SUCH AS PRECIPITATION OR FOG.

+ - STATION NOT QUALITY CONTROLLED BY THE NATIONAL WEATHER SERVICE.
    USE DATA WITH CAUTION...ESPECIALLY DEWPOINT AND RELATIVE
    HUMIDITY OBSERVATIONS.

INZ001>003-010>013-019-020-050300-
NORTHWEST INDIANA

CITY           SKY/WX    TMP DP  RH WIND       PRES   REMARKS
GARY /AIRPORT/ CLEAR    N/A N/A N/A CALM      30.01R
KNOX *+        CLEAR     70  63  78 CALM      30.01R
LA PORTE +     CLEAR     69  64  83 CALM      30.03R
MICHIGAN CITY+ CLEAR     64  59  82 CALM      30.02R
MONTICELLO +   CLEAR     70  64  83 CALM      30.01R HAZE
RENSSELAER +   CLEAR     68  64  88 CALM      30.02R
VALPARAISO     CLEAR     69  62  78 E5        30.02R

$$

LMZ046-743>745-050300-
SOUTHERN LAKE MICHIGAN

STATION/POSITION TIME  TEMP    WIND        PRES    WAVE
                       AIR SEA DIR/SP/G            HT
                 (UTC) (F)     (DEG/KT/KT) (MB)    (FT)
BURNS HARBOR     0200   69      70/  6/  6 1016.6S
MICHIGAN CITY    0200   72      60/  3/  4   N/A
5NW MICH CITY    0200   67 65  110/  4/  4   N/A     0

$$

INZ004-005-014>016-021>024-050300-
NORTH CENTRAL INDIANA

CITY           SKY/WX    TMP DP  RH WIND       PRES   REMARKS
GOSHEN         CLEAR     70  61  73 CALM      30.03R
LOGANSPORT +   CLEAR     68  61  77 CALM      30.04R
PERU/GRISSOM   CLEAR     70  63  78 SE3       30.03R
ROCHESTER +    CLEAR     72  64  78 CALM      30.03R
SOUTH BEND     CLEAR     68  58  70 CALM      30.02R
WARSAW +         N/A     64  61  88 CALM      30.03R

$$

INZ006>009-017-018-025>027-050300-
NORTHEAST INDIANA

CITY           SKY/WX    TMP DP  RH WIND       PRES   REMARKS
ANGOLA *+        N/A     66  61  82 CALM      30.03R
AUBURN +       CLEAR     64  57  77 CALM      30.04R
FORT WAYNE     CLEAR     68  61  78 CALM      30.03R
HUNTINGTON +   CLEAR     67  61  83 CALM      30.03R

$$

INZ028-029-035-036-043>045-051>053-050300-
WEST CENTRAL INDIANA

CITY           SKY/WX    TMP DP  RH WIND       PRES   REMARKS
CRAWFORDSVL +  CLEAR     64  62  93 CALM      30.03R
GREENCASTLE +  PTCLDY    68  57  68 CALM      30.03R
LAFAYETTE      CLEAR     68  62  81 CALM      30.01R
TERRE HAUTE    PTCLDY    70  65  84 N3        30.02R

$$

INZ030>032-037>040-046>048-054>057-064-065-050300-
CENTRAL INDIANA

CITY           SKY/WX    TMP DP  RH WIND       PRES   REMARKS
CP ATTERBURY + MOCLDY    68  64  88 CALM      30.02R
FRANKFORT +    CLEAR     69  63  83 E3        30.05R
INDIANAPOLIS   PTCLDY    74  56  53 N6        30.01R
-EAGLE CREEK   PTCLDY    72  60  66 N3        30.02R
KOKOMO *+      CLEAR     70  64  83 SE3       30.03R
MARION +       CLEAR     68  61  78 CALM      30.04R
MT COMFORT *+  PTCLDY    68  61  77 CALM      30.04R
SHELBYVILLE    MOCLDY    72  63  73 E3        30.02R
ZIONSVILLE +   PTCLDY    68  62  80 N3        30.04S

$$

INZ033-034-041-042-049-050-058-059-050300-
EAST CENTRAL INDIANA

CITY           SKY/WX    TMP DP  RH WIND       PRES   REMARKS
MUNCIE         PTCLDY    70  60  70 CALM      30.04R

$$

INZ060-061-067>069-081>083-085>088-050300-
SOUTHWEST INDIANA

CITY           SKY/WX    TMP DP  RH WIND       PRES   REMARKS
EVANSVILLE     CLOUDY    76  68  76 N3        29.99S HAZE
HUNTINGBURG *+ CLOUDY    73  68  83 N3        30.00R
WASHINGTON +   CLOUDY    71  67  87 CALM      30.00R

$$

INZ062-063-066-070>080-084-089>092-050300-
SOUTH CENTRAL AND SOUTHEAST INDIANA

CITY           SKY/WX    TMP DP  RH WIND       PRES   REMARKS
BLOOMINGTON    MOCLDY    70  67  90 CALM      30.02R
MADISON *+     MOCLDY    73  64  73 CALM      30.04R
NORTH VERNON + MOCLDY    70  70 100 CALM      30.02R
SEYMOUR +      MOCLDY    72  68  88 E3        30.01R

$$



USA.gov is the U.S. government's official web portal to all federal, state and local government web resources and services.